SCP
0 0 0 0 -0 -0 0 0 0 0 0 0 0 0 0 0 0 0 0 0 0 0 0 0 0 0 0 0 0 0 0 0 0 0 0 0 0 0 0 0 0 0 0 0 0 0 0
0 0 0 0 0 0 0 0 0 0 0 0 0 0 0 0 0 0 0 0 0 0 0 0 0 0 0 0 0 0 0 0 0 0 0 0 0 0 0 0 0 0 0 0 0 0 0
0 0 0 0 0 0 0 0 0 0 0 0 0 0 0 0 0 0 0 0 0 0 0 0 0 0 0 0 0 0 0 0 0 0 0 0 0 0 0 0 0 0 0 0 0 0 0
0 0 0 0 0 0 0 0 0 0 0 0 0 0 0 0 0 0 0 0 0 0 0 0 0 0 0 0 0 0 0 0 0 0 0 0 0 0 0 0 0 0 0 0 0 0 0
0 0 0 0 0 0 0 0 0 0 0 0 0 0 0 0 0 0 0 0 0 0 0 0 0 0 0 0 0 0 0 0 0 0 0 0 0 0 0 0 0 0 0 0 0 0 0
0 0 0 0 0 0 0 0 0 0 0 0 0 0 0 0 0 0 0 0 0 0 0 0 0 0 0 0 0 0 0 0 0 0 0 0 0 0 0 0 0 0 0 0 0 0 0
0 0 0 0 0 0 0 0 0 0 0 0 0 0 0 0 -0 -0 0 -0 0 0 0 0 0 0 0 0 0 0 0 0 0 0 0 0 0 0 0 0 0 0 0 0 0 0 0
0 0 0 0 0 0 0 0 0 0 0 0 0 0 0 0 0 0 0 0 0 0 0 0 0 0 0 0 0 0 0 0 0 0 0 0 0 0 0 0 0 0 0 0 0 0 0
0 0 0 0 0 0 0 0 0 0 0 0 0 0 0 0 0 0 0 0 0 0 0 0 0 0 0 0 0 0 0 0 0 0 0 0 0 0 0 0 0 0 0 0 0 0 0
0 0 0 0 0 0 0 0 0 0 0 0 0 0 0 0 0 0 0 0 0 0 0 0 0 0 0 0 0 0 0 0 0 0 0 0 0 0 0 0 0 0 0 0 0 0 0
0 0 0 0 0 0 0 0 0 0 0 0 0 0 0 0 0 0 0 0 0 0 0 0 0 0 0 0 0 0 0 0 0 0 0 0 0 0 0 0 0 0 0 0 0 0 0
0 0 0 0 0 0 0 0 0 0 0 0 0 0 0 0 0 0 0 0 0 0 0 0 0 0 0 0 0 0 0 0 0 0 0 0 0 0 0 0 0 0 0 0 0 0 0
0 0 0 0 0 0 0 0 0 0 0 0 0 0 0 0 0 0 0 0 0 0 0 0 0 0 0 0 0 0 0 0 0 0 0 0 0 0 0 0 0 0 0 0 0 0 0
0 0 0 0 0 0 -0 -0 -0 -0 -0 -0 0 0 0 0 0 0 0 0 0 0 0 0 0 0 0 0 0 0 0 0 0 0 0 0 0 0 0 0 0 0 0 0 0 0 0
0 0 0 0 0 0 -0 -0 -0 -0 -0 -0 0 0 -0 0 0 0 0 0 0 0 0 0 0 0 0 0 0 0 0 0 0 0 0 0 0 0 0 0 0 0 0 0 0 0 0
0 0 0 0 0 0 0 0 0 -0 -0 -0 -0 -0 -0 0 0 0 0 0 0 0 0 0 0 0 0 0 0 0 0 0 0 0 0 0 0 0 0 0 0 0 0 0 0 0 0
0 0 0 0 0 0 0 0 0 -0 -0 -0 -0 -0 0 0 0 0 0 0 0 0 0 0 0 0 0 0 0 0 0 0 0 0 -0 -0 0 0 0 0 0 0 0 0 0 0 0
0 0 0 0 0 0 0 0 0 0 0 -0 -0 -0 0 0 0 0 0 0 0 0 0 0 0 0 0 0 0 0 0 0 0 0 0 0 0 0 0 0 0 0 0 0 0 0 0
0 0 0 0 0 0 0 0 0 0 0 -0 -0 -0 0 0 0 0 0 0 0 0 0 0 0 0 0 0 0 0 0 0 0 0 0 0 0 0 0 0 0 0 0 0 0 0 0
0 0 0 0 0 0 0 0 0 0 0 0 0 0 0 0 0 0 0 0 0 0 0 0 0 0 0 0 0 0 0 0 0 0 0 0 0 0 0 0 0 0 0 -0 0 0 0
0 0 0 0 0 0 0 0 0 0 0 0 0 0 0 0 0 0 0 0 0 0 0 0 0 0 0 0 0 0 0 0 0 0 0 0 0 0 0 0 0 0 0 0 0 0 0
0 0 0 0 0 0 0 0 0 0 0 0 0 0 0 0 0 0 0 0 0 0 0 0 0 0 0 0 0 0 0 0 0 0 0 0 0 0 0 0 0 0 0 0 0 0 0
0 0 0 0 0 0 0 0 0 0 0 0 0 0 0 0 0 0 0 0 0 0 0 0 0 0 0 0 0 0 0 0 0 0 0 0 0 0 0 0 0 0 0 0 0 0 0
0 0 0 0 0 0 0 0 0 0 0 0 0 0 0 0 0 0 0 0 0 0 0 0 0 0 0 0 0 0 0 0 0 0 0 0 0 0 0 0 0 0 0 0 0 0 0
0 0 0 0 0 0 0 0 0 0 0 0 0 0 0 0 0 0 0 0 0 0 0 0 0 0 0 0 0 0 0 0 0 0 0 0 0 0 0 0 0 0 0 0 0 0 0
0 0 0 0 0 0 0 0 0 0 0 0 0 0 0 0 0 0 0 0 0 0 0 0 0 0 0 0 0 0 0 0 0 0 0 -0 0 0 0 0 0 0 0 0 0 0 0
0 0 0 0 0 0 0 0 0 0 0 0 0 0 0 0 0 0 0 0 0 0 0 0 0 0 0 0 0 0 0 0 0 0 -0 -0 -0 0 0 0 0 0 0 0 0 0 0
0 0 0 0 0 0 0 0 0 0 0 0 0 0 0 0 0 0 0 0 0 0 0 0 0 0 0 0 0 0 0 0 0 0 0 0 0 0 0 0 0 0 0 0 0 0 0
0 0 0 0 0 0 0 0 0 0 0 0 0 0 0 0 0 0 0 0 0 0 0 0 0 0 0 0 0 0 0 0 0 0 0 0 0 0 0 0 0 0 0 0 0 0 0
Wind_Speed_500mb
38 37 37 37 37 38 40 40 42 43 44 46 46 46 46 46 45 46 48 51 52 48 42 40 30 30 24 16 23 23 21 21 19 16 17 21 20 11 7 5 8 10 4 9 11 14 16
35 36 37 37 38 39 41 43 44 46 47 49 49 50 51 51 49 49 49 49 52 54 49 36 26 26 23 10 17 18 16 16 18 17 19 21 15 16 10 9 11 3 5 11 15 15 17
36 38 39 41 43 46 47 47 49 50 51 52 53 54 55 56 57 55 52 51 54 53 47 28 24 24 28 34 22 19 21 20 15 15 20 22 24 14 3 6 5 2 9 9 17 16 10
40 43 44 45 46 49 51 51 53 53 54 55 56 57 57 57 58 58 56 55 53 48 43 26 27 22 16 20 19 20 20 17 14 11 13 18 17 16 10 5 3 5 1 6 2 14 7
39 40 43 45 47 50 52 54 55 57 58 59 60 61 61 61 63 62 61 55 54 40 34 22 23 15 16 11 13 12 11 12 12 11 8 11 11 8 6 7 7 4 10 13 13 20 10
41 44 47 48 50 51 53 56 60 61 62 61 62 64 63 59 60 61 58 58 36 33 17 21 15 11 15 9 10 10 21 23 14 11 6 9 6 1 4 7 13 13 10 10 12 11 10
44 46 49 52 56 59 60 61 61 62 65 67 68 68 66 62 57 51 55 48 27 9 21 39 49 36 22 22 24 20 14 7 9 7 8 5 5 17 26 14 2 3 7 11 9 5 11
47 51 55 59 62 64 66 67 69 70 70 69 67 68 69 65 57 31 48 22 25 22 36 41 29 32 44 34 12 10 7 8 8 9 9 7 19 18 11 11 15 13 13 20 9 2 12
51 56 60 64 67 69 69 68 68 69 68 67 65 64 65 63 50 22 42 25 40 31 10 17 4 7 8 10 8 9 10 9 8 6 12 12 3 7 8 7 11 10 13 11 16 5 8
57 62 66 68 70 69 69 68 67 66 63 62 64 61 61 64 25 44 24 31 40 29 5 10 1 1 2 5 4 11 10 7 5 13 11 13 5 9 9 12 15 11 5 3 2 2 9
58 62 65 67 68 70 69 68 67 65 62 58 57 57 55 48 50 41 24 30 36 13 11 4 1 1 2 3 4 4 10 6 10 10 10 14 12 10 11 12 13 9 4 4 3 2 7
57 62 66 68 69 69 69 68 66 65 65 63 57 52 55 50 44 27 25 26 21 7 14 1 4 4 6 2 3 4 3 6 3 3 6 10 1 6 7 6 4 9 6 6 7 4 4
60 64 67 70 74 76 76 75 77 78 75 73 66 57 52 50 33 16 24 17 7 6 9 4 4 3 6 8 6 8 5 3 6 6 8 3 8 3 6 5 8 3 7 4 5 1 13
62 63 69 75 75 72 75 74 72 79 87 88 80 63 43 19 14 9 17 4 8 5 11 7 9 11 11 4 4 7 3 8 12 7 5 9 14 14 8 7 6 9 8 9 13 7 7
62 68 69 69 66 71 64 62 66 70 83 92 84 67 23 11 8 8 3 2 9 7 10 17 18 10 4 7 3 6 6 6 9 6 4 9 8 8 9 8 2 4 12 3 5 4 2
64 66 69 67 67 72 71 57 61 71 79 88 85 54 17 13 7 4 2 9 9 6 12 11 6 9 8 11 11 11 7 6 4 15 16 14 13 6 5 3 8 8 8 4 4 6 9
63 66 67 67 72 71 66 57 55 65 75 80 60 22 14 16 21 4 5 10 9 10 19 11 6 18 15 10 7 6 6 2 4 1 3 9 8 1 4 8 14 5 6 5 4 5 4
64 64 62 57 68 66 52 52 55 59 67 74 30 8 19 24 11 5 3 6 24 15 16 8 7 5 6 8 8 11 9 2 17 6 2 5 6 7 11 8 11 6 9 10 5 7 8
64 60 63 60 55 58 56 50 51 54 58 58 31 14 19 14 2 4 11 13 11 13 16 16 10 1 5 5 11 11 8 7 20 13 10 9 6 7 4 3 3 7 11 13 1 1 11
61 57 55 50 49 53 61 49 48 51 51 43 19 7 10 9 14 7 13 9 12 24 15 12 7 5 7 9 13 13 10 9 19 18 13 13 8 15 19 9 9 8 11 18 13 6 9
56 50 46 45 47 50 65 63 39 44 43 32 4 7 5 7 11 27 15 8 14 15 8 6 4 7 11 10 7 8 10 12 11 11 10 6 10 10 17 23 17 18 21 22 23 30 17
50 50 44 42 45 49 52 53 38 39 38 24 11 8 9 21 19 10 12 7 24 12 12 18 7 18 17 15 22 32 16 6 7 4 7 4 8 5 9 26 22 18 28 26 26 29 26
48 49 45 45 47 46 50 50 35 37 29 18 15 21 12 12 1 4 8 7 18 29 20 17 31 23 11 24 28 34 41 46 33 15 12 7 6 6 9 2 6 7 20 18 6 9 11
51 48 44 46 51 49 50 45 42 36 24 27 35 30 11 6 4 8 9 36 23 12 26 46 31 13 23 42 49 44 43 44 37 39 30 16 8 6 9 3 12 11 6 11 15 9 7
52 51 52 51 51 52 51 42 40 35 29 29 32 31 15 5 5 21 19 13 28 40 20 30 42 24 24 25 9 10 9 8 4 5 4 8 10 8 6 6 9 17 3 6 7 4 3
57 55 55 57 58 55 54 45 40 41 35 29 31 26 21 7 15 25 7 21 6 7 11 14 19 31 22 3 4 4 7 9 9 6 5 3 2 2 2 6 8 11 3 2 2 7 2
61 60 56 60 60 52 50 45 39 37 34 31 29 27 22 15 41 39 14 9 12 10 7 15 11 11 7 4 5 8 9 5 4 6 9 2 3 7 8 9 13 8 10 8 6 4 5
63 63 61 60 60 56 48 45 39 36 35 33 36 30 31 19 51 50 52 32 19 15 9 21 16 6 2 5 5 6 6 8 2 8 10 9 8 7 2 1 14 16 8 11 8 7 9
67 66 65 62 59 57 54 44 38 34 33 29 36 25 25 39 38 52 65 63 67 60 51 21 13 7 8 4 5 6 9 3 10 19 6 5 13 7 16 13 1 34 3 14 3 10 12
Wind_Direction_500mb
35 29 25 22 17 12 7 2 358 356 354 353 352 352 351 349 349 347 343 342 344 342 334 322 302 292 291 270 257 265 272 292 295 274 241 214 196 197 214 245 220 218 222 229 227 225 247
25 19 14 10 5 1 358 354 352 351 348 347 345 343 342 340 340 340 338 335 338 338 332 322 302 289 280 245 264 268 274 292 291 265 232 220 226 208 239 239 190 219 248 255 246 230 234
12 8 3 0 358 355 352 350 348 346 344 343 342 340 339 337 335 335 334 332 331 330 326 316 309 287 270 275 260 265 278 291 275 253 234 231 228 213 232 287 252 272 296 303 224 210 229
5 1 358 356 353 351 350 350 348 346 344 342 340 337 336 335 332 330 329 327 325 322 318 297 310 283 254 267 264 273 281 275 262 251 240 236 232 227 225 202 342 303 110 284 248 148 198
2 359 357 354 351 349 347 346 345 343 343 341 338 336 335 335 332 329 329 328 326 316 307 291 299 266 269 263 252 255 263 274 260 246 224 197 191 213 158 128 350 267 248 212 301 188 144
359 355 354 353 353 352 350 348 346 345 343 342 339 336 333 332 330 332 331 331 324 316 288 309 262 285 242 246 243 256 279 279 237 201 185 180 188 143 40 134 225 221 229 252 240 202 186
1 1 358 354 350 348 345 342 340 338 336 336 335 333 332 335 335 332 333 348 348 303 292 271 272 260 268 262 284 283 269 240 189 183 173 194 127 212 215 223 322 341 251 266 274 186 193
360 357 353 350 347 345 343 340 338 337 336 335 334 332 331 331 335 324 346 17 352 304 301 296 279 258 250 261 269 249 232 185 172 204 132 58 234 215 177 188 227 241 261 264 266 353 194
355 353 351 349 346 343 341 339 337 337 337 335 334 332 332 330 334 321 340 344 343 335 270 299 224 215 222 211 209 208 191 169 182 216 206 183 264 110 170 210 210 224 205 218 231 298 242
354 352 350 348 345 344 342 340 340 340 340 337 335 336 335 331 341 331 337 331 338 334 325 268 169 84 167 188 238 211 199 179 212 213 193 228 252 189 201 232 179 262 211 119 290 60 240
352 351 350 349 346 345 343 340 339 338 337 336 335 336 332 335 321 332 323 323 329 337 341 321 73 108 202 226 316 226 215 208 218 194 131 244 183 193 203 220 169 232 97 96 84 129 18
353 352 351 350 349 347 346 343 342 340 338 335 336 338 333 330 318 328 327 316 321 48 254 348 82 13 342 193 249 165 230 230 262 311 242 255 298 198 206 71 29 129 96 62 56 87 290
351 351 349 350 352 352 351 349 346 345 344 341 339 339 336 322 321 328 336 319 36 169 321 355 67 198 206 235 228 179 180 241 220 295 247 214 206 126 145 114 13 127 118 279 283 343 238
347 345 348 351 351 349 349 349 349 348 344 343 344 345 344 340 345 347 341 19 213 274 289 358 9 274 224 4 208 178 236 273 233 223 252 229 276 174 172 200 198 192 201 201 239 212 256
343 345 348 350 346 346 344 344 348 350 348 344 346 349 4 15 9 58 292 354 237 259 335 347 335 324 301 61 327 342 241 251 43 34 260 337 282 32 33 358 66 146 217 323 51 158 304
340 341 344 346 342 344 344 339 343 347 347 348 349 346 55 16 355 237 97 230 251 342 350 9 297 276 314 330 333 348 199 33 68 50 38 351 297 352 323 19 61 103 323 337 47 253 243
335 336 340 342 341 344 344 342 343 346 346 350 356 348 14 23 356 258 233 237 295 21 8 357 318 287 289 304 257 257 280 89 221 118 111 202 210 32 5 199 193 151 186 93 277 256 294
329 333 337 338 338 341 343 343 343 344 348 348 2 340 336 314 2 20 289 283 332 339 5 0 359 311 276 4 292 280 250 311 184 248 254 192 180 257 245 36 53 94 149 168 178 215 222
325 329 330 336 335 340 341 342 343 349 349 356 342 294 355 4 65 319 324 334 351 12 6 345 315 9 345 303 309 245 262 243 183 181 174 180 230 313 226 68 218 212 196 204 234 20 199
320 325 325 331 334 337 341 340 340 342 342 353 338 320 329 347 43 29 347 304 330 303 279 222 257 265 290 269 229 278 281 273 207 210 199 177 205 209 249 277 232 220 205 199 167 202 228
318 320 319 325 331 335 337 341 333 338 340 348 323 282 16 318 349 331 338 285 312 319 282 297 270 255 310 305 277 255 304 350 286 264 188 195 244 211 251 266 271 260 266 250 210 240 254
312 311 314 320 329 332 339 342 339 332 330 340 292 304 315 295 294 325 306 253 285 300 349 310 264 318 330 290 282 290 293 232 221 237 211 226 224 240 262 257 247 256 263 261 260 259 252
305 304 309 317 324 330 334 336 329 333 323 314 270 260 282 248 318 275 252 296 325 321 308 273 313 301 279 287 285 279 272 271 262 251 209 212 211 188 253 240 86 280 239 236 232 209 187
300 303 306 310 320 324 329 323 325 324 311 286 288 293 246 249 185 224 258 291 284 285 295 292 294 270 280 295 301 289 267 258 259 258 248 230 184 195 266 155 245 241 233 211 216 237 239
297 298 305 311 317 320 317 313 322 307 312 288 283 278 238 241 180 276 259 262 301 303 285 282 284 268 284 313 288 333 315 298 284 96 281 248 256 240 234 192 317 307 165 151 176 250 61
298 300 303 307 313 314 311 302 300 308 304 293 285 281 247 245 227 256 236 284 255 265 295 256 283 297 320 256 269 251 244 242 298 306 337 212 122 230 14 266 237 236 179 163 130 297 287
294 299 300 302 306 305 305 295 294 304 297 304 284 282 247 238 266 263 211 233 281 249 253 302 310 310 269 228 243 243 244 222 263 249 214 66 337 220 252 261 271 227 166 193 122 253 225
295 296 299 301 299 303 296 292 289 289 298 291 284 280 265 259 277 266 261 262 234 241 267 294 307 273 174 212 235 251 206 241 360 230 194 185 176 224 97 156 279 153 129 189 161 184 270
293 295 296 296 293 298 292 287 280 289 285 282 278 296 293 258 264 277 278 271 269 275 265 238 232 201 240 216 223 243 234 184 205 278 191 274 194 204 192 217 164 188 256 149 289 246 275
Wind_Speed_850mb
38 37 37 37 37 38 40 40 42 43 44 46 46 46 46 46 45 46 48 51 52 48 42 40 30 30 24 16 23 23 21 21 19 16 17 21 20 11 7 5 8 10 4 9 11 14 16
35 36 37 37 38 39 41 43 44 46 47 49 49 50 51 51 49 49 49 49 52 54 49 36 26 26 23 10 17 18 16 16 18 17 19 21 15 16 10 9 11 3 5 11 15 15 17
36 38 39 41 43 46 47 47 49 50 51 52 53 54 55 56 57 55 52 51 54 53 47 28 24 24 28 34 22 19 21 20 15 15 20 22 24 14 3 6 5 2 9 9 17 16 10
40 43 44 45 46 49 51 51 53 53 54 55 56 57 57 57 58 58 56 55 53 48 43 26 27 22 16 20 19 20 20 17 14 11 13 18 17 16 10 5 3 5 1 6 2 14 7
39 40 43 45 47 50 52 54 55 57 58 59 60 61 61 61 63 62 61 55 54 40 34 22 23 15 16 11 13 12 11 12 12 11 8 11 11 8 6 7 7 4 10 13 13 20 10
41 44 47 48 50 51 53 56 60 61 62 61 62 64 63 59 60 61 58 58 36 33 17 21 15 11 15 9 10 10 21 23 14 11 6 9 6 1 4 7 13 13 10 10 12 11 10
44 46 49 52 56 59 60 61 61 62 65 67 68 68 66 62 57 51 55 48 27 9 21 39 49 36 22 22 24 20 14 7 9 7 8 5 5 17 26 14 2 3 7 11 9 5 11
47 51 55 59 62 64 66 67 69 70 70 69 67 68 69 65 57 31 48 22 25 22 36 41 29 32 44 34 12 10 7 8 8 9 9 7 19 18 11 11 15 13 13 20 9 2 12
51 56 60 64 67 69 69 68 68 69 68 67 65 64 65 63 50 22 42 25 40 31 10 17 4 7 8 10 8 9 10 9 8 6 12 12 3 7 8 7 11 10 13 11 16 5 8
57 62 66 68 70 69 69 68 67 66 63 62 64 61 61 64 25 44 24 31 40 29 5 10 1 1 2 5 4 11 10 7 5 13 11 13 5 9 9 12 15 11 5 3 2 2 9
58 62 65 67 68 70 69 68 67 65 62 58 57 57 55 48 50 41 24 30 36 13 11 4 1 1 2 3 4 4 10 6 10 10 10 14 12 10 11 12 13 9 4 4 3 2 7
57 62 66 68 69 69 69 68 66 65 65 63 57 52 55 50 44 27 25 26 21 7 14 1 4 4 6 2 3 4 3 6 3 3 6 10 1 6 7 6 4 9 6 6 7 4 4
60 64 67 70 74 76 76 75 77 78 75 73 66 57 52 50 33 16 24 17 7 6 9 4 4 3 6 8 6 8 5 3 6 6 8 3 8 3 6 5 8 3 7 4 5 1 13
62 63 69 75 75 72 75 74 72 79 87 88 80 63 43 19 14 9 17 4 8 5 11 7 9 11 11 4 4 7 3 8 12 7 5 9 14 14 8 7 6 9 8 9 13 7 7
62 68 69 69 66 71 64 62 66 70 83 92 84 67 23 11 8 8 3 2 9 7 10 17 18 10 4 7 3 6 6 6 9 6 4 9 8 8 9 8 2 4 12 3 5 4 2
64 66 69 67 67 72 71 57 61 71 79 88 85 54 17 13 7 4 2 9 9 6 12 11 6 9 8 11 11 11 7 6 4 15 16 14 13 6 5 3 8 8 8 4 4 6 9
63 66 67 67 72 71 66 57 55 65 75 80 60 22 14 16 21 4 5 10 9 10 19 11 6 18 15 10 7 6 6 2 4 1 3 9 8 1 4 8 14 5 6 5 4 5 4
64 64 62 57 68 66 52 52 55 59 67 74 30 8 19 24 11 5 3 6 24 15 16 8 7 5 6 8 8 11 9 2 17 6 2 5 6 7 11 8 11 6 9 10 5 7 8
64 60 63 60 55 58 56 50 51 54 58 58 31 14 19 14 2 4 11 13 11 13 16 16 10 1 5 5 11 11 8 7 20 13 10 9 6 7 4 3 3 7 11 13 1 1 11
61 57 55 50 49 53 61 49 48 51 51 43 19 7 10 9 14 7 13 9 12 24 15 12 7 5 7 9 13 13 10 9 19 18 13 13 8 15 19 9 9 8 11 18 13 6 9
56 50 46 45 47 50 65 63 39 44 43 32 4 7 5 7 11 27 15 8 14 15 8 6 4 7 11 10 7 8 10 12 11 11 10 6 10 10 17 23 17 18 21 22 23 30 17
50 50 44 42 45 49 52 53 38 39 38 24 11 8 9 21 19 10 12 7 24 12 12 18 7 18 17 15 22 32 16 6 7 4 7 4 8 5 9 26 22 18 28 26 26 29 26
48 49 45 45 47 46 50 50 35 37 29 18 15 21 12 12 1 4 8 7 18 29 20 17 31 23 11 24 28 34 41 46 33 15 12 7 6 6 9 2 6 7 20 18 6 9 11
51 48 44 46 51 49 50 45 42 36 24 27 35 30 11 6 4 8 9 36 23 12 26 46 31 13 23 42 49 44 43 44 37 39 30 16 8 6 9 3 12 11 6 11 15 9 7
52 51 52 51 51 52 51 42 40 35 29 29 32 31 15 5 5 21 19 13 28 40 20 30 42 24 24 25 9 10 9 8 4 5 4 8 10 8 6 6 9 17 3 6 7 4 3
57 55 55 57 58 55 54 45 40 41 35 29 31 26 21 7 15 25 7 21 6 7 11 14 19 31 22 3 4 4 7 9 9 6 5 3 2 2 2 6 8 11 3 2 2 7 2
61 60 56 60 60 52 50 45 39 37 34 31 29 27 22 15 41 39 14 9 12 10 7 15 11 11 7 4 5 8 9 5 4 6 9 2 3 7 8 9 13 8 10 8 6 4 5
63 63 61 60 60 56 48 45 39 36 35 33 36 30 31 19 51 50 52 32 19 15 9 21 16 6 2 5 5 6 6 8 2 8 10 9 8 7 2 1 14 16 8 11 8 7 9
67 66 65 62 59 57 54 44 38 34 33 29 36 25 25 39 38 52 65 63 67 60 51 21 13 7 8 4 5 6 9 3 10 19 6 5 13 7 16 13 1 34 3 14 3 10 12
Wind_Direction_850mb
35 29 25 22 17 12 7 2 358 356 354 353 352 352 351 349 349 347 343 342 344 342 334 322 302 292 291 270 257 265 272 292 295 274 241 214 196 197 214 245 220 218 222 229 227 225 247
25 19 14 10 5 1 358 354 352 351 348 347 345 343 342 340 340 340 338 335 338 338 332 322 302 289 280 245 264 268 274 292 291 265 232 220 226 208 239 239 190 219 248 255 246 230 234
12 8 3 0 358 355 352 350 348 346 344 343 342 340 339 337 335 335 334 332 331 330 326 316 309 287 270 275 260 265 278 291 275 253 234 231 228 213 232 287 252 272 296 303 224 210 229
5 1 358 356 353 351 350 350 348 346 344 342 340 337 336 335 332 330 329 327 325 322 318 297 310 283 254 267 264 273 281 275 262 251 240 236 232 227 225 202 342 303 110 284 248 148 198
2 359 357 354 351 349 347 346 345 343 343 341 338 336 335 335 332 329 329 328 326 316 307 291 299 266 269 263 252 255 263 274 260 246 224 197 191 213 158 128 350 267 248 212 301 188 144
359 355 354 353 353 352 350 348 346 345 343 342 339 336 333 332 330 332 331 331 324 316 288 309 262 285 242 246 243 256 279 279 237 201 185 180 188 143 40 134 225 221 229 252 240 202 186
1 1 358 354 350 348 345 342 340 338 336 336 335 333 332 335 335 332 333 348 348 303 292 271 272 260 268 262 284 283 269 240 189 183 173 194 127 212 215 223 322 341 251 266 274 186 193
360 357 353 350 347 345 343 340 338 337 336 335 334 332 331 331 335 324 346 17 352 304 301 296 279 258 250 261 269 249 232 185 172 204 132 58 234 215 177 188 227 241 261 264 266 353 194
355 353 351 349 346 343 341 339 337 337 337 335 334 332 332 330 334 321 340 344 343 335 270 299 224 215 222 211 209 208 191 169 182 216 206 183 264 110 170 210 210 224 205 218 231 298 242
354 352 350 348 345 344 342 340 340 340 340 337 335 336 335 331 341 331 337 331 338 334 325 268 169 84 167 188 238 211 199 179 212 213 193 228 252 189 201 232 179 262 211 119 290 60 240
352 351 350 349 346 345 343 340 339 338 337 336 335 336 332 335 321 332 323 323 329 337 341 321 73 108 202 226 316 226 215 208 218 194 131 244 183 193 203 220 169 232 97 96 84 129 18
353 352 351 350 349 347 346 343 342 340 338 335 336 338 333 330 318 328 327 316 321 48 254 348 82 13 342 193 249 165 230 230 262 311 242 255 298 198 206 71 29 129 96 62 56 87 290
351 351 349 350 352 352 351 349 346 345 344 341 339 339 336 322 321 328 336 319 36 169 321 355 67 198 206 235 228 179 180 241 220 295 247 214 206 126 145 114 13 127 118 279 283 343 238
347 345 348 351 351 349 349 349 349 348 344 343 344 345 344 340 345 347 341 19 213 274 289 358 9 274 224 4 208 178 236 273 233 223 252 229 276 174 172 200 198 192 201 201 239 212 256
343 345 348 350 346 346 344 344 348 350 348 344 346 349 4 15 9 58 292 354 237 259 335 347 335 324 301 61 327 342 241 251 43 34 260 337 282 32 33 358 66 146 217 323 51 158 304
340 341 344 346 342 344 344 339 343 347 347 348 349 346 55 16 355 237 97 230 251 342 350 9 297 276 314 330 333 348 199 33 68 50 38 351 297 352 323 19 61 103 323 337 47 253 243
335 336 340 342 341 344 344 342 343 346 346 350 356 348 14 23 356 258 233 237 295 21 8 357 318 287 289 304 257 257 280 89 221 118 111 202 210 32 5 199 193 151 186 93 277 256 294
329 333 337 338 338 341 343 343 343 344 348 348 2 340 336 314 2 20 289 283 332 339 5 0 359 311 276 4 292 280 250 311 184 248 254 192 180 257 245 36 53 94 149 168 178 215 222
325 329 330 336 335 340 341 342 343 349 349 356 342 294 355 4 65 319 324 334 351 12 6 345 315 9 345 303 309 245 262 243 183 181 174 180 230 313 226 68 218 212 196 204 234 20 199
320 325 325 331 334 337 341 340 340 342 342 353 338 320 329 347 43 29 347 304 330 303 279 222 257 265 290 269 229 278 281 273 207 210 199 177 205 209 249 277 232 220 205 199 167 202 228
318 320 319 325 331 335 337 341 333 338 340 348 323 282 16 318 349 331 338 285 312 319 282 297 270 255 310 305 277 255 304 350 286 264 188 195 244 211 251 266 271 260 266 250 210 240 254
312 311 314 320 329 332 339 342 339 332 330 340 292 304 315 295 294 325 306 253 285 300 349 310 264 318 330 290 282 290 293 232 221 237 211 226 224 240 262 257 247 256 263 261 260 259 252
305 304 309 317 324 330 334 336 329 333 323 314 270 260 282 248 318 275 252 296 325 321 308 273 313 301 279 287 285 279 272 271 262 251 209 212 211 188 253 240 86 280 239 236 232 209 187
300 303 306 310 320 324 329 323 325 324 311 286 288 293 246 249 185 224 258 291 284 285 295 292 294 270 280 295 301 289 267 258 259 258 248 230 184 195 266 155 245 241 233 211 216 237 239
297 298 305 311 317 320 317 313 322 307 312 288 283 278 238 241 180 276 259 262 301 303 285 282 284 268 284 313 288 333 315 298 284 96 281 248 256 240 234 192 317 307 165 151 176 250 61
298 300 303 307 313 314 311 302 300 308 304 293 285 281 247 245 227 256 236 284 255 265 295 256 283 297 320 256 269 251 244 242 298 306 337 212 122 230 14 266 237 236 179 163 130 297 287
294 299 300 302 306 305 305 295 294 304 297 304 284 282 247 238 266 263 211 233 281 249 253 302 310 310 269 228 243 243 244 222 263 249 214 66 337 220 252 261 271 227 166 193 122 253 225
295 296 299 301 299 303 296 292 289 289 298 291 284 280 265 259 277 266 261 262 234 241 267 294 307 273 174 212 235 251 206 241 360 230 194 185 176 224 97 156 279 153 129 189 161 184 270
293 295 296 296 293 298 292 287 280 289 285 282 278 296 293 258 264 277 278 271 269 275 265 238 232 201 240 216 223 243 234 184 205 278 191 274 194 204 192 217 164 188 256 149 289 246 275